[[{"header":{"parameterUnit":"m.s-1","parameterCategory":1,"la1":30.2991,"la2":30.254,"lo1":-89.0895,"lo2":-89.0444,"dy":0.0017,"dx":0.0017,"nx":28,"ny":28,"refTime":"2024-08-11T15:00:00:Z","depth":0,"parameterNumber":2,"parameterNumberName":"U-component_of_WINDS"},"data":[0,0,0,0,0,0,0,0,0,0,0,0,0,0,0,0,0,0,0,0,0,0,0,0,0,0,0,0,0,0,0,0,0,0,0,0,0,0,0,0,0,0,0,0,0,0,0,0,0,0,0,0,0,0,0,0,0,0,2.6821,2.6822,0,2.6859,2.686,2.686,2.6797,2.6795,2.6793,2.6791,2.6829,2.6832,2.6835,0,0,0,0,0,0,0,0,0,0,0,0,0,2.6693,2.6696,2.6821,2.6822,2.6822,2.6859,2.686,2.686,2.6798,2.6795,2.6793,2.679,2.6828,2.6831,2.6835,0,0,0,0,0,0,0,0,0,0,0,0,0,2.6742,2.6697,2.6821,2.6796,2.6794,2.6859,2.686,2.686,2.6798,2.6795,2.6792,2.6789,2.6827,2.6831,2.6835,2.6927,0,0,2.6849,2.6851,0,0,0,0,0,0,0,0,2.6739,2.6747,2.6799,2.6797,2.6795,2.682,2.6828,2.6883,2.6799,2.6797,2.6791,2.6787,2.6829,2.6833,2.6847,2.6929,2.6931,2.685,2.6852,2.6854,2.6855,0,0,0,0,0,0,0,2.6736,2.6745,2.6836,2.68,2.6798,2.6782,2.6785,2.6838,2.683,2.6797,2.6792,2.6798,2.6827,2.6843,2.6847,2.6931,2.6849,2.6853,2.6856,2.6858,2.709,2.7093,0,0,0,0,0,0,2.6736,2.6742,2.6835,2.6837,2.6759,2.6787,2.679,2.6816,2.6829,2.6828,2.68,2.6794,2.6837,2.6842,2.6848,2.6956,2.6854,2.6858,2.6861,2.7087,2.7091,2.7095,0,0,0,0,0,0,2.6733,2.6745,2.6833,2.6789,2.6799,2.6792,2.6821,2.6818,2.6833,2.6832,2.683,2.6818,2.6834,2.6842,2.6908,2.6957,2.686,2.6864,2.7082,2.7088,2.7093,2.7173,0,0,0,0,0,0,2.673,2.6744,2.6779,2.679,2.6801,2.6893,2.6824,2.6821,2.6842,2.6834,2.6848,2.6847,2.6832,2.6902,2.6913,2.6961,2.6868,2.7078,2.7085,2.7091,2.7166,2.718,2.7193,0,0,0,0,0,2.6726,2.68,2.6781,2.6793,2.6845,2.6896,2.6903,2.6884,2.6846,2.6881,2.688,2.6847,2.695,2.6909,2.6921,2.6971,2.7075,2.7083,2.7091,2.716,2.7178,2.7192,0,0,0,0,0,0,2.6795,2.6801,2.678,2.6861,2.6878,2.6885,2.6929,2.6903,2.6932,2.6924,2.69,2.6903,2.6974,2.6979,2.6934,2.7061,2.7006,2.7016,2.7055,2.7071,2.7084,2.7081,2.6872,0,0,0,0,0,2.682,2.6861,2.6864,2.6935,2.6945,2.6936,2.6957,2.6941,2.6959,2.6966,2.6969,2.6987,2.7023,2.7048,2.7081,2.7167,2.7168,2.7207,2.7221,2.7231,2.7241,2.7286,2.7303,2.712,2.712,2.712,0,0,2.6871,2.688,2.6907,2.6949,2.6961,2.7004,2.6942,2.699,2.7022,2.6973,2.7035,2.7039,2.7057,2.7133,2.7167,2.714,2.7292,2.7241,2.725,2.7253,2.7296,2.7313,2.7329,2.7126,2.7125,2.7124,0,0,2.6986,2.6997,2.7057,2.707,2.7089,2.7083,2.7097,2.7109,2.7109,2.7172,2.7136,2.7173,2.7236,2.725,2.7266,2.7387,2.7357,2.7398,2.7468,2.7512,2.7527,2.7539,2.7582,2.7598,2.7408,2.7408,2.7408,0,2.7048,2.7111,2.7091,2.7142,2.7161,2.7119,2.7179,2.7193,2.7222,2.7236,2.7205,2.7283,2.7292,2.7371,2.7401,2.7415,2.743,2.7396,2.7526,2.7539,2.755,2.7591,2.7607,2.7413,2.7412,2.7412,2.7411,0,2.7185,2.723,2.7276,2.7306,2.733,2.7385,2.7373,2.74,2.7382,2.7379,2.7443,2.7453,2.7487,2.7505,2.7488,2.7582,2.7564,2.753,2.7475,2.7573,2.761,2.7626,2.742,2.7418,2.7416,2.7415,0,0,2.7345,2.7363,2.738,2.7393,2.7411,2.7445,2.7498,2.7532,2.7555,2.7577,2.762,2.7675,2.7644,2.7662,2.7646,2.7685,2.778,2.7646,2.7646,2.767,2.7883,2.7908,2.7926,2.7761,2.7764,2.7766,2.7881,0,2.746,2.7552,2.7535,2.7625,2.7665,2.7627,2.7673,2.7689,2.7687,2.7721,2.7719,2.7758,2.7714,2.7724,2.7762,2.7761,2.7822,2.7752,2.7801,2.7803,2.7797,2.7946,2.7973,2.8081,2.7896,2.7898,2.79,0,2.7606,2.7633,2.7727,2.7738,2.7754,2.7796,2.7826,2.7859,2.7876,2.7872,2.7893,2.787,2.7922,2.7866,2.7938,2.7891,2.791,2.7912,2.7916,2.7919,2.7857,2.7953,2.8115,2.8131,2.7923,2.7921,2.792,0,2.7712,2.7772,2.7836,2.7848,2.7863,2.7893,2.7901,2.7915,2.7937,2.7963,2.7976,2.8008,2.8025,2.805,2.8036,2.7997,2.811,2.8053,2.8108,2.8108,2.8133,2.8132,2.83,2.8147,2.8146,2.8146,2.8146,0,2.7842,2.79,2.7884,2.7923,2.7988,2.7968,2.8032,2.8035,2.8048,2.8087,2.8055,2.8092,2.8072,2.8107,2.8096,2.8157,2.8165,2.8163,2.8159,2.8166,2.8166,2.8177,2.8169,2.815,2.8149,2.8148,2.8148,0,2.7971,2.7963,2.803,2.8039,2.8042,2.8089,2.8097,2.8133,2.8129,2.8179,2.8189,2.8183,2.8223,2.8212,2.8255,2.8248,2.8324,2.8311,2.8319,2.8315,2.837,2.8365,2.8551,2.8575,2.8407,2.8408,2.841,0,2.8054,2.8099,2.8112,2.8136,2.8146,2.8185,2.8207,2.8189,2.8213,2.8236,2.827,2.8307,2.8335,2.8401,2.84,2.8433,2.842,2.8483,2.8425,2.843,2.842,2.8418,2.8422,2.8495,2.8497,2.8498,2.8499,0,2.8202,2.8196,2.8229,2.8261,2.8288,2.8312,2.8333,2.8354,2.8338,2.8366,2.8407,2.8429,2.8473,2.851,2.854,2.8547,2.8521,2.8518,2.8532,2.8539,2.8541,2.854,2.835,2.8514,2.8512,2.8511,2.851,2.851,2.8311,2.8348,2.8364,2.8401,2.8415,2.8436,2.847,2.8471,2.8505,2.8539,2.8527,2.8573,2.8589,2.8626,2.8638,2.8673,2.8649,2.867,2.8675,2.868,2.8687,2.8536,2.8679,2.8678,2.8678,2.8677,2.8677,0,2.8456,2.8465,2.85,2.853,2.856,2.8533,2.8554,2.8581,2.8622,2.8639,2.8668,2.8715,2.8751,2.8753,2.8786,2.8814,2.8803,2.8824,2.8821,2.8823,2.8707,2.8691,2.8832,2.8832,2.8832,2.8832,2.8832,2.8832,2.8536,2.8598,2.8593,2.8661,2.8669,2.8714,2.8729,2.8748,2.8761,2.8815,2.8844,2.8846,2.8857,2.8891,2.8922,2.8922,2.8935,2.8961,2.8956,2.8847,2.8831,2.8817,2.8802,2.8964,2.8964,2.9069,2.907,2.9071]},{"header":{"parameterUnit":"m.s-1","parameterCategory":1,"la1":30.2991,"la2":30.254,"lo1":-89.0895,"lo2":-89.0444,"dy":0.0017,"dx":0.0017,"nx":28,"ny":28,"refTime":"2024-08-11T15:00:00:Z","depth":0,"parameterNumber":3,"parameterNumberName":"V-component_of_WINDS"},"data":[0,0,0,0,0,0,0,0,0,0,0,0,0,0,0,0,0,0,0,0,0,0,0,0,0,0,0,0,0,0,0,0,0,0,0,0,0,0,0,0,0,0,0,0,0,0,0,0,0,0,0,0,0,0,0,0,0,0,-1.2888,-1.2889,0,-1.2978,-1.2979,-1.298,-1.299,-1.2989,-1.2988,-1.2987,-1.3079,-1.3083,-1.3086,0,0,0,0,0,0,0,0,0,0,0,0,0,-1.2728,-1.2731,-1.2888,-1.2889,-1.289,-1.2977,-1.2979,-1.298,-1.299,-1.2989,-1.2987,-1.2986,-1.3078,-1.3082,-1.3086,0,0,0,0,0,0,0,0,0,0,0,0,0,-1.2805,-1.2732,-1.2888,-1.2906,-1.2908,-1.2977,-1.2979,-1.298,-1.299,-1.2989,-1.2987,-1.2986,-1.3077,-1.3082,-1.3087,-1.3144,0,0,-1.3102,-1.3104,0,0,0,0,0,0,0,0,-1.2801,-1.2811,-1.2902,-1.2905,-1.2908,-1.2971,-1.2956,-1.3035,-1.299,-1.2959,-1.2987,-1.2985,-1.3045,-1.3052,-1.3072,-1.3149,-1.3153,-1.3102,-1.3105,-1.3107,-1.3109,0,0,0,0,0,0,0,-1.2796,-1.2808,-1.2924,-1.2903,-1.2907,-1.291,-1.2919,-1.2971,-1.3008,-1.2962,-1.2962,-1.2973,-1.3046,-1.3067,-1.3074,-1.3154,-1.3102,-1.3107,-1.311,-1.3112,-1.3284,-1.3286,0,0,0,0,0,0,-1.2787,-1.2803,-1.2921,-1.2926,-1.285,-1.2914,-1.2925,-1.2952,-1.3008,-1.3015,-1.2974,-1.2973,-1.3059,-1.3068,-1.3077,-1.3149,-1.3107,-1.3112,-1.3115,-1.3282,-1.3284,-1.3286,0,0,0,0,0,0,-1.2783,-1.2797,-1.2917,-1.2865,-1.288,-1.2918,-1.2949,-1.2955,-1.2976,-1.3017,-1.3024,-1.2989,-1.3059,-1.307,-1.3128,-1.3152,-1.3114,-1.3119,-1.3281,-1.3283,-1.3285,-1.3293,0,0,0,0,0,0,-1.2779,-1.2796,-1.2818,-1.2865,-1.2883,-1.2966,-1.295,-1.2957,-1.2984,-1.2984,-1.3033,-1.304,-1.3058,-1.312,-1.3133,-1.3159,-1.3123,-1.3279,-1.3282,-1.3284,-1.329,-1.3295,-1.3299,0,0,0,0,0,-1.2773,-1.2816,-1.2819,-1.2833,-1.2911,-1.2967,-1.2977,-1.2998,-1.2986,-1.3009,-1.3035,-1.3038,-1.3148,-1.3126,-1.314,-1.3168,-1.3277,-1.3281,-1.3284,-1.3288,-1.3294,-1.3299,0,0,0,0,0,0,-1.277,-1.2823,-1.2826,-1.2886,-1.2922,-1.2968,-1.2997,-1.3003,-1.3043,-1.3041,-1.3065,-1.3076,-1.3133,-1.3156,-1.3131,-1.3227,-1.3211,-1.3218,-1.321,-1.3215,-1.322,-1.3213,-1.3127,0,0,0,0,0,-1.2777,-1.2817,-1.2861,-1.291,-1.2928,-1.2959,-1.2984,-1.2997,-1.3036,-1.3051,-1.3082,-1.3119,-1.3163,-1.319,-1.3232,-1.3294,-1.3305,-1.332,-1.3324,-1.3328,-1.3333,-1.3368,-1.3375,-1.3298,-1.3298,-1.3298,0,0,-1.279,-1.2824,-1.2848,-1.291,-1.2939,-1.2981,-1.2972,-1.3017,-1.3048,-1.3058,-1.3114,-1.3138,-1.3182,-1.3242,-1.327,-1.3263,-1.3357,-1.3332,-1.3335,-1.3338,-1.3373,-1.338,-1.3386,-1.33,-1.33,-1.33,0,0,-1.2837,-1.2866,-1.291,-1.294,-1.2984,-1.3006,-1.3016,-1.3062,-1.3079,-1.3135,-1.3144,-1.3182,-1.3255,-1.3286,-1.3312,-1.3371,-1.3375,-1.3384,-1.3406,-1.3441,-1.3447,-1.3452,-1.3474,-1.3481,-1.3389,-1.3389,-1.3389,0,-1.2848,-1.2911,-1.2932,-1.2977,-1.3004,-1.3015,-1.306,-1.3088,-1.3144,-1.3163,-1.3155,-1.3248,-1.3278,-1.3346,-1.336,-1.338,-1.3394,-1.3378,-1.3444,-1.345,-1.3455,-1.3476,-1.3484,-1.339,-1.339,-1.339,-1.339,0,-1.2923,-1.2967,-1.2997,-1.3051,-1.3082,-1.3127,-1.3155,-1.3184,-1.3194,-1.3217,-1.3275,-1.3312,-1.3361,-1.3378,-1.3389,-1.3448,-1.3443,-1.3439,-1.3423,-1.3463,-1.3483,-1.3491,-1.3391,-1.3391,-1.3391,-1.3391,0,0,-1.297,-1.3035,-1.3046,-1.3071,-1.3121,-1.3156,-1.3202,-1.325,-1.3275,-1.3313,-1.3353,-1.3415,-1.3412,-1.3441,-1.3456,-1.3486,-1.3531,-1.3478,-1.348,-1.3487,-1.3599,-1.3602,-1.361,-1.3534,-1.3536,-1.3537,-1.3596,0,-1.3022,-1.3103,-1.3124,-1.3193,-1.3234,-1.3245,-1.3285,-1.3321,-1.3343,-1.3382,-1.3407,-1.3451,-1.3444,-1.3461,-1.3491,-1.3519,-1.3554,-1.3515,-1.3572,-1.3573,-1.356,-1.3621,-1.3624,-1.3677,-1.3604,-1.3605,-1.3606,0,-1.3093,-1.3133,-1.3207,-1.3253,-1.3271,-1.3306,-1.3353,-1.3389,-1.3431,-1.3445,-1.3478,-1.3489,-1.3538,-1.3521,-1.3589,-1.3562,-1.3587,-1.3604,-1.3607,-1.3612,-1.3592,-1.3629,-1.3694,-1.3702,-1.3618,-1.3617,-1.3616,0,-1.312,-1.3193,-1.3246,-1.3267,-1.3322,-1.3347,-1.3371,-1.3411,-1.3439,-1.348,-1.3499,-1.3545,-1.357,-1.3606,-1.3631,-1.3616,-1.3697,-1.3681,-1.3711,-1.371,-1.3727,-1.3726,-1.3798,-1.3743,-1.3743,-1.3743,-1.3743,0,-1.3176,-1.3221,-1.3259,-1.3292,-1.3342,-1.3366,-1.3416,-1.344,-1.3476,-1.3514,-1.3527,-1.3563,-1.3593,-1.3633,-1.3653,-1.3707,-1.3718,-1.3732,-1.3736,-1.373,-1.3729,-1.3747,-1.3744,-1.3745,-1.3745,-1.3744,-1.3744,0,-1.3214,-1.3242,-1.3301,-1.3348,-1.3361,-1.3396,-1.3437,-1.347,-1.3493,-1.3541,-1.3554,-1.3591,-1.3639,-1.3667,-1.3728,-1.3741,-1.3801,-1.3804,-1.3787,-1.3789,-1.3817,-1.3814,-1.3903,-1.3916,-1.3852,-1.3853,-1.3853,0,-1.3248,-1.3283,-1.3334,-1.336,-1.3385,-1.3427,-1.3456,-1.3481,-1.3511,-1.3561,-1.3588,-1.3637,-1.3678,-1.3754,-1.3787,-1.3834,-1.3838,-1.3866,-1.3845,-1.3839,-1.3839,-1.3837,-1.384,-1.3869,-1.387,-1.3871,-1.3871,0,-1.3305,-1.3318,-1.3358,-1.3404,-1.3439,-1.3476,-1.3513,-1.3535,-1.3566,-1.3599,-1.3649,-1.368,-1.3742,-1.3791,-1.3841,-1.3867,-1.3875,-1.3877,-1.3887,-1.3881,-1.387,-1.3877,-1.3797,-1.3875,-1.3875,-1.3874,-1.3874,-1.3874,-1.3343,-1.3374,-1.3415,-1.3461,-1.3492,-1.3526,-1.356,-1.3587,-1.3629,-1.3681,-1.3694,-1.3746,-1.3787,-1.3855,-1.3882,-1.3924,-1.3919,-1.3933,-1.3936,-1.3939,-1.394,-1.3863,-1.3933,-1.3933,-1.3933,-1.3933,-1.3933,0,-1.3401,-1.3428,-1.347,-1.3522,-1.3558,-1.3562,-1.3604,-1.3634,-1.3679,-1.3717,-1.3757,-1.3814,-1.3862,-1.3898,-1.3947,-1.3974,-1.3978,-1.3986,-1.3984,-1.399,-1.3941,-1.3928,-1.3981,-1.3981,-1.3981,-1.3981,-1.3981,-1.3981,-1.3436,-1.3489,-1.3506,-1.3576,-1.3603,-1.3654,-1.3677,-1.371,-1.374,-1.3804,-1.3843,-1.3866,-1.3904,-1.3956,-1.4001,-1.401,-1.4028,-1.4034,-1.4045,-1.3998,-1.3993,-1.3988,-1.3976,-1.4038,-1.4038,-1.409,-1.409,-1.4091]}]]